Regional Weather Roundup
Issued by NWS Charleston, SC

Current Version | Previous Version | Text Only | Print | Product List | Glossary On
Versions: 1 2 3 4 5 6 7 8 9 10 11 12 13 14 15 16 17 18 19 20 21 22 23 24 25 26 27 28 29 30 31 32 33 34 35 36 37 38 39 40 41 42 43 44 45 46 47 48 49 50
000
ASUS42 KCHS 012128
RWRCHS

REGIONAL WEATHER ROUNDUP
NATIONAL WEATHER SERVICE CHARLESTON SC
500 PM EDT SUN MAY 01 2016

NOTE: "FAIR" INDICATES FEW OR NO CLOUDS BELOW 12,000 FEET WITH NO
SIGNIFICANT WEATHER AND/OR OBSTRUCTIONS TO VISIBILITY.

NOT ALL STATIONS ARE QUALITY CONTROLLED. USE DATA WITH CAUTION...
ESPECIALLY DEWPOINT OBSERVATIONS.

SCZ027-030-031-034>040-042>050-012200-
...SOUTHEAST SOUTH CAROLINA...

CITY           SKY/WX    TMP DP  RH WIND       PRES   REMARKS
N CHARLESTON   CLOUDY    78  68  71 SW8       30.04R
WATERFRONT PRK   N/A     76  71  84 S8        30.02S
MOUNT PLEASANT FAIR      75  72  88 SW3       30.07R
JOHNS ISLAND   FAIR      77  72  83 S9        30.05R
PINOPOLIS        N/A     81  70  69 VRB3      29.96S
MONCKS CORNER  TSTM      73  66  78 S3        30.05S
SUMMERVILLE    TSTM      70  66  88 W3        30.08R
BEAUFORT MCAS  CLOUDY    81  69  67 VRB5      30.03S
BEAUFORT ARPT  FAIR      79  68  69 S6        30.04R
HILTON HEAD IS PTSUNNY   82  73  74 S6        30.05S
WALTERBORO     TSTM      70  70 100 NE5       30.07R
ALLENDALE      FAIR      73  70  88 SE5       30.02R

...SOUTHERN MIDLANDS AND PEE DEE...

CITY           SKY/WX    TMP DP  RH WIND       PRES   REMARKS
GEORGETOWN     MOCLDY    75  68  78 S9G16     30.08R
KINGSTREE      FAIR      68  64  88 E9        30.05F
ORANGEBURG     CLOUDY    74  70  87 S10       30.04S
BARNWELL       FAIR      79  72  78 S6        30.02R
AIKEN          FAIR      81  68  65 SE9       30.03R
MANNING        NOT AVBL
COLUMBIA       CLOUDY    82  69  64 SE9       29.99R THUNDER
SUMTER         PTSUNNY   76  69  80 SE5       30.00F
FLORENCE       CLOUDY    70  66  87 SE12      30.06S
MYRTLE BEACH   CLOUDY    73  64  73 SE8       30.08R
N MYRTLE BEACH TSTM      71  69  93 CALM      30.08S FOG

$$

GAZ063-065-086>088-099>101-113>116-118-119-134>141-150-012200-
...SOUTHEAST GEORGIA...

CITY           SKY/WX    TMP DP  RH WIND       PRES   REMARKS
SAVANNAH ARPT  PTSUNNY   81  63  54 S15       30.01S
HUNTER AAF     MOSUNNY   80  70  73 S12       30.00S
FORT STEWART   MOSUNNY   85  69  60 SE10      29.99S
STATESBORO     LGT RAIN  74  73  97 CALM      30.02F
SYLVANIA       CLOUDY    72  70  96 CALM      30.04S
CLAXTON        TSTM      72  69  90 CALM      30.04R

...CSRA...CENTRAL AND FAR SOUTHEAST GEORGIA...

CITY           SKY/WX    TMP DP  RH WIND       PRES   REMARKS
THOMSON        CLOUDY    87  68  53 W5        30.02F HX  90
AUGUSTA-BUSH   MOSUNNY   86  69  56 S10       29.96F HX  90
AUGUSTA-DANIEL PTSUNNY   86  69  56 SE12      29.98F HX  90
SWAINSBORO     FAIR      77  68  73 SE5       30.01F
VIDALIA        CLOUDY    77  70  78 E5        30.01S
EASTMAN        FAIR      85  70  59 CALM      30.01S HX  90
HAZLEHURST     FAIR      88  66  48 SW10      29.97F HX  90
ALMA           MOSUNNY   88  65  46 VRB6      29.98F HX  90
WAYCROSS       MOSUNNY   88  67  49 SW6       29.98S HX  91
JESUP          FAIR      84  73  70 SE9       30.00F HX  91
BAXLEY         FAIR      88  66  48 S6        29.98S HX  90
BRUNSWICK      LGT RAIN  82  73  74 S8        30.03S
SAINT SIMONS   PTSUNNY   77  72  84 SE12      30.02F

$$

SCZ027-028-034-036>038-045-046-048>050-GAZ119-141-012200-
...LAKE AND SUPPLEMENTAL COASTAL OBSERVATIONS...

STATION/POSITION TIME  TEMP    WIND        PRES    WAVE   SWELL
                       AIR SEA DIR/SP/G            HT/PER HT/PER/DIR
                 (UTC) (F)     (DEG/KT/KT) (MB)    (FT/S) (FT/S/D)
WINYAH BAY       2000   77     190/ 13     1017.0S
LAKE MURRAY      2000   85     220/  3/  4 1014.6F
ACE BASIN NERRS  2000   79     160/  1     1017.0S
FORT PULASKI     2100   77 74  150/  6/  9 1017.3R
SAPELO ISLAND    2100   79     150/  7     1017.0S

$$

ANZ835-935-AMZ111-154-330-350-352-354-370-450-454-472-012200-
...C-MAN AND BUOY OBSERVATIONS...

STATION/POSITION TIME  TEMP    WIND        PRES    WAVE   SWELL
                       AIR SEA DIR/SP/G            HT/PER HT/PER/DIR
                 (UTC) (F)     (DEG/KT/KT) (MB)    (FT/S) (FT/S/D)
BUOY 41004       2050   76 74  170/  8/ 10 1017.2F   4/ 7   3/ 7
BUOY 41008       NOT AVBL
FOLLY BEACH CMAN 2100   74     190/  9/ 11 1017.6F
CAPERS NEARSHORE 2008   73 71  200/ 10/ 14 1017.4R
FRIPP NEARSHORE  2108   74 74  170/  8/ 10 1016.7R


STATION/POSITION TIME  TEMP    WIND        PRES    WAVE   SWELL
                       AIR SEA DIR/SP/G            HT/PER HT/PER/DIR
                 (UTC) (F)     (DEG/KT/KT) (MB)    (FT/S) (FT/S/D)
5E ST. MARYS GA  2021      75                N/A     3/ 6
FRYING PAN BUOY  2100   74 72  180/  4/  4 1018.3R
BUOY 41025       2050   74 74  190/ 16/ 17 1018.6F   4/10   3/ 70/10
CAPE LOOKOUT NC  2100   72     220/  5/  8 1018.3F
BUOY 41002       2050   73     140/  8/ 10 1020.0F   4/10   5/ 10/10
BUOY 41010       2020   77 78  140/ 10/ 12 1017.6F
ST AUGUSTINE FL  2100   75 74  140/ 11/ 12 1016.9F


$$




USA.gov is the U.S. government's official web portal to all federal, state and local government web resources and services.